DELTA 1 DEB, 40762

Orbit data source: Space-Track

DELTA 1 DEB, 40762 is space debris in LEO originally from a launch on Thu, 29 Jul 1976 UTC launched from the Air Force Western Test Range (AFWTR). Debris objects in space refer to the collection of defunct objects orbiting the Earth. Examples of debris include non-operational satellites, rocket bodies, and fragments generated from explosions, collisions, or faulty payload assembly.

Loading next visibility...
Identifier
40762, 1976-077GF
Orbit
LEO
Country
Flag of USUS
Related business
Manufacturer
Unknown
Mission
Spacecraft
Bus & Motor
Unknown
Mass
Unknown
Launch date (UTC)
1976-07-29 (50 years ago)
Launch vehicle
Unknown
Launch site
Air Force Western Test Range (AFWTR)
Object type
Payload
Rocket body
Debris
Shape & HBR
Unknown shape, 1.1 m
Radar Cross Section
Small (<0.1 m²)

Expand to show TLE details & history
Last TLE update: 2 months ago

TLE from 2 months ago
0 DELTA 1 DEB
1 40762U 76077GF  25330.32172605  .00000226  00000-0  34790-2 0  9990
2 40762 102.3435  97.7822 0327079   8.8400 351.8209 11.83408767516041
Epoch: 2025-11-26T07:43Z
TLE epoch observation values (Epoch: 2025-11-26T07:43:17.130Z)
Latitude
-0.00002°
Longitude
-83.53383°
Altitude
1,495.272 km
Speed
7.231 km/s
True Right ascension
06h 31m 07s
True Declination
0° 00' 00"
Sunlit
Object was in full shadow at epoch
Visualization orbit readout
Latitude
Unknown
Longitude
Unknown
Altitude
Unknown
Speed
Unknown
Apparent Right ascension
Unknown
Apparent Declination
Unknown
Sunlit
N/A
Visualization observer readout
Local Sidereal Time
09:46:23
Azimuth
Unknown
Elevation
Unknown
Doppler factor
Unknown
Orbital elements
Apogee altitude
2,019.65 km
Perigee altitude
1,487.701 km
Semi-major axis
8,131.812 km
Eccentricity
0.03271
Inclination
102.3435°
RAAN
97.7822°
Arg. of periapsis
8.84°
True anomaly
351.26523°
Mean anomaly
351.8209°
Eccentric anomaly
351.54537°
Mean motion
2.9598 °/min
Orbital period
121.63 mins
BSTAR
0.003479
Loading maneuver chart data...
Computing Atmospheric mass density...
Loading historical data...
Loading historical data...
Loading historical data...
Loading historical data...
Loading historical data...
Loading historical data...
Loading historical data...

Documentation

Showing up to 5 results
|